ECMWFFLT1_sfc_temp_132.txt.gz
Temp
63 62 63 64 65 66 65 64 64 63 64 64 64 64 65 64 63 62 62 62 62 62 62 61 60 61 62 63 63 63 63 62 60 58 57 57 56 56 59 58 58 58 58 56 57 55 54 52 55 59 60 62 62 61 62 62 63 62 60 59 61 61 61
63 63 64 66 65 65 64 63 63 63 63 63 63 63 63 63 63 62 61 61 61 61 63 61 61 63 63 63 61 60 60 59 59 59 57 56 56 56 55 56 55 56 56 56 57 56 54 53 53 54 56 60 61 61 63 63 64 62 59 58 59 59 59
63 63 63 63 63 64 63 62 61 61 61 61 62 62 62 62 61 61 61 61 60 62 62 60 61 63 64 63 61 59 59 59 58 58 57 56 58 59 59 58 56 55 55 55 57 56 55 55 53 54 55 54 54 58 63 63 62 62 59 58 57 58 57
62 63 62 62 62 61 62 61 60 60 60 60 61 61 61 61 61 62 60 60 61 62 62 61 63 64 63 61 60 59 59 58 57 57 57 57 57 56 56 57 57 57 55 54 56 57 56 55 54 55 57 57 55 55 61 63 62 61 59 57 56 57 57
63 63 62 62 61 61 61 60 60 60 59 59 60 60 60 60 60 59 60 60 61 61 62 64 64 64 62 60 59 58 58 58 58 58 56 55 55 55 55 56 57 57 57 56 58 58 56 55 55 54 55 56 55 56 61 61 60 58 59 56 56 56 56
64 63 62 61 62 61 61 60 59 58 59 59 58 59 58 58 60 60 60 59 60 61 61 61 62 61 59 58 58 58 58 57 57 56 56 55 55 54 54 55 55 55 56 58 58 57 57 56 56 54 55 55 52 53 58 59 56 57 59 56 56 56 55
62 62 62 62 61 61 61 59 59 59 58 58 59 58 59 59 59 60 59 59 59 59 60 59 59 59 59 58 58 58 57 57 57 56 56 55 55 55 55 54 54 54 54 55 56 55 53 53 54 54 53 54 52 52 55 58 58 55 56 57 57 57 56
62 61 61 61 61 61 60 60 59 59 59 59 59 60 60 58 59 58 59 59 59 59 59 59 59 58 58 58 58 58 57 57 56 56 55 55 54 54 54 53 54 54 54 54 54 53 54 53 53 53 52 51 50 50 51 55 55 54 53 56 57 57 56
62 61 60 61 61 61 60 60 59 59 59 59 60 61 60 59 58 59 59 59 59 58 58 57 57 57 57 57 57 57 56 58 56 55 54 54 54 53 53 53 53 53 53 53 54 53 53 53 53 54 54 53 50 48 49 49 50 50 54 51 54 56 55
61 60 60 60 60 60 60 60 60 59 60 60 61 59 58 57 57 57 58 58 58 58 57 56 57 57 57 57 56 55 55 55 55 54 54 53 53 53 53 53 52 52 53 53 53 53 52 53 53 53 53 51 51 49 47 46 46 45 50 51 48 52 55
61 61 60 60 60 60 59 60 60 60 59 60 60 60 57 57 58 60 58 57 57 57 56 56 56 57 58 57 56 55 55 55 54 54 54 54 53 53 53 53 52 52 53 52 52 52 52 52 52 52 52 53 51 49 49 45 45 47 47 50 51 50 54
60 60 60 60 60 60 59 59 59 59 59 58 60 58 58 58 58 57 58 56 56 56 55 55 56 57 57 56 56 55 55 54 53 53 53 54 53 52 52 51 51 51 52 51 51 51 51 52 51 52 52 53 52 49 48 45 41 46 49 46 49 53 52
60 60 59 59 59 59 59 59 58 58 56 56 56 57 57 58 58 56 56 56 55 54 54 54 56 56 56 55 55 54 54 54 53 52 52 53 53 52 51 50 50 50 50 51 51 51 51 51 51 51 51 51 51 50 48 45 42 43 48 47 49 51 52
59 59 59 59 59 59 59 58 58 56 57 57 55 57 59 58 56 56 56 56 55 54 54 55 55 56 55 54 54 54 53 53 52 51 52 51 52 51 50 50 50 50 49 49 50 50 50 50 51 51 51 51 50 50 48 45 43 43 47 49 49 49 51
59 59 59 59 59 59 57 57 55 56 54 54 57 58 57 56 56 56 55 54 54 54 54 54 55 56 55 54 54 55 53 52 51 50 50 50 50 51 50 49 49 49 49 48 48 49 49 49 49 49 49 49 49 49 49 46 44 43 43 48 48 50 50
59 59 58 58 58 58 56 56 56 55 56 56 57 57 56 55 55 55 54 53 53 53 54 54 54 55 54 53 52 52 52 51 51 50 49 49 49 49 49 48 48 48 49 48 48 47 48 48 49 48 48 48 47 48 49 48 46 44 43 45 47 47 48
59 58 58 58 58 56 56 55 56 57 56 56 55 55 55 54 54 53 53 52 52 52 53 54 54 54 54 53 52 52 51 51 50 50 49 49 48 49 48 47 47 47 47 47 46 47 47 47 47 48 47 48 47 47 48 48 48 44 45 44 46 46 48
60 59 58 58 56 55 55 56 57 56 55 55 54 54 54 53 52 52 51 51 51 51 51 53 53 53 53 53 52 52 51 50 50 49 49 50 51 48 48 47 46 46 46 45 45 45 46 46 47 47 47 47 47 48 48 47 48 47 46 44 45 47 48
59 58 58 57 56 56 56 56 55 55 55 54 53 53 52 52 52 50 50 50 50 49 50 51 51 52 52 52 52 51 50 50 49 49 49 49 48 48 47 46 46 46 45 44 44 44 45 45 46 46 46 47 47 47 47 47 48 48 46 45 45 45 47
58 58 57 56 56 56 56 56 55 54 54 53 53 52 51 51 50 50 49 49 49 49 49 50 50 51 51 51 51 51 50 49 49 49 47 47 47 47 47 47 46 45 45 43 43 43 43 45 46 45 46 46 46 46 46 46 47 46 46 45 45 45 45
58 57 55 55 55 55 56 55 54 54 54 52 52 51 50 50 49 49 48 48 48 48 48 49 49 49 50 50 50 49 49 49 48 47 47 47 48 47 47 47 46 46 46 45 44 43 42 44 44 45 45 46 46 46 45 45 45 45 45 45 44 44 44
59 56 55 54 54 55 55 54 54 53 53 52 52 51 50 50 49 48 47 47 47 47 47 47 48 48 49 49 49 48 48 48 47 47 46 46 46 46 46 46 47 47 51 53 51 49 48 49 46 44 45 44 46 45 45 45 44 44 44 44 43 44 44
58 56 54 54 55 55 54 54 53 52 52 52 51 50 49 49 48 47 46 46 46 46 46 47 50 49 50 49 47 48 47 46 46 45 45 45 45 46 45 45 49 54 53 54 51 48 46 46 48 47 44 44 43 45 44 44 44 44 44 42 42 42 42
57 53 52 54 55 55 54 54 53 52 51 51 50 50 49 48 47 46 46 45 44 44 44 47 46 44 45 47 48 46 46 45 44 44 44 43 44 45 44 45 45 50 50 50 49 48 47 46 45 45 45 46 48 45 44 44 44 43 44 42 42 42 42
55 53 53 55 55 55 54 53 52 51 50 49 49 48 47 46 45 45 45 44 43 43 43 46 44 44 44 45 47 46 45 45 44 43 43 43 43 43 44 45 46 47 48 48 47 46 49 48 46 46 46 45 43 42 44 46 45 43 43 42 41 41 41
55 54 54 55 55 54 53 52 51 50 49 49 48 47 46 45 44 44 44 43 42 42 41 44 44 44 44 44 44 46 45 43 44 42 42 42 42 42 43 45 45 45 46 50 48 45 45 47 48 48 48 48 48 46 41 41 44 47 45 43 42 41 41
54 55 55 55 55 53 52 51 50 50 50 49 47 46 45 44 43 43 43 42 41 41 41 44 44 44 44 43 43 44 44 43 43 42 42 42 42 42 42 43 43 44 44 44 43 44 46 46 47 47 47 47 46 48 46 44 44 45 46 45 43 42 41
54 54 55 55 54 52 51 50 50 49 49 48 46 45 44 43 43 43 42 42 42 41 41 43 43 43 43 43 43 44 44 44 43 41 41 41 41 41 40 42 42 42 42 42 43 44 46 46 47 46 46 46 46 46 45 44 44 45 46 45 44 43 42
53 54 54 54 52 51 50 50 48 48 47 46 45 44 43 43 42 41 41 42 42 40 39 41 42 43 43 43 44 46 43 43 42 42 42 41 41 41 40 41 41 42 41 42 43 43 45 47 46 46 45 46 46 46 46 46 44 46 46 45 44 43 42
54 54 54 52 51 50 49 48 48 48 46 45 44 43 42 42 41 41 41 41 41 39 39 41 42 43 43 43 44 44 43 43 42 41 41 41 41 42 43 41 40 41 42 41 42 42 43 47 45 45 45 45 45 45 45 46 43 42 43 43 42 42 42
55 54 53 52 50 49 49 48 48 48 46 44 43 42 42 41 40 41 41 40 41 40 38 41 43 43 43 43 45 44 42 42 40 41 40 40 41 41 46 51 47 41 41 41 41 42 43 46 44 43 44 44 44 43 44 45 46 45 42 42 42 42 43
55 54 53 51 50 49 48 48 47 47 45 44 43 42 43 41 40 39 40 41 47 41 39 42 43 42 43 43 45 43 43 42 41 39 41 42 40 42 42 46 47 43 42 42 41 42 43 46 43 42 42 43 42 42 41 41 43 43 43 43 43 43 43
55 54 52 50 50 49 48 47 46 46 45 44 43 42 41 41 40 39 39 40 41 39 40 40 41 42 44 43 44 45 43 41 41 39 40 42 44 41 40 42 45 40 40 40 41 41 42 43 44 42 43 42 40 42 42 45 45 43 41 42 40 41 41
54 52 51 50 49 49 48 47 46 45 44 43 42 41 40 39 39 37 37 38 39 39 42 40 40 43 44 43 43 44 42 41 40 40 39 39 37 40 40 40 40 42 39 40 40 41 42 42 44 43 42 41 41 43 45 44 45 46 43 42 41 41 43
54 52 51 50 49 48 47 47 46 45 43 42 41 40 38 39 38 38 37 38 38 38 43 44 41 43 43 43 43 43 43 41 42 41 39 38 38 39 39 38 40 40 39 40 40 41 41 42 42 44 40 41 41 42 45 43 43 43 42 42 41 40 40
53 53 51 50 49 47 46 46 45 44 43 41 40 39 38 38 38 38 38 38 37 37 37 42 43 43 43 43 42 43 42 41 42 43 42 40 40 41 39 37 40 42 39 40 40 41 41 42 43 41 40 41 41 41 43 43 42 41 40 40 40 40 39
54 52 50 49 48 46 45 45 45 44 43 42 40 39 38 38 38 39 39 37 39 38 37 39 42 43 43 42 42 42 41 41 41 40 40 39 38 38 37 37 39 39 41 41 41 41 41 42 41 41 41 41 42 42 43 42 40 40 39 39 38 38 39

ECMWFFLT1_sfc_temp_138.txt.gz
Temp
62 61 62 61 61 62 61 61 61 61 61 62 61 61 61 61 61 60 60 60 60 61 61 59 58 58 58 59 59 57 58 57 56 55 54 54 53 54 57 55 56 57 56 56 56 53 53 51 54 59 60 59 60 60 59 57 56 55 54 54 55 54 55
62 62 62 63 61 62 60 60 60 60 60 60 60 60 60 61 62 60 60 60 60 60 60 59 58 58 57 57 56 56 55 55 56 56 54 53 53 52 53 53 54 54 55 55 55 55 53 51 52 54 54 58 59 59 59 57 56 55 55 54 55 54 55
62 61 61 60 60 60 60 59 59 59 59 59 59 59 59 59 60 60 60 60 60 60 60 58 57 57 57 56 56 55 55 54 54 55 54 53 53 53 52 52 51 52 53 53 52 52 54 55 50 52 53 52 52 56 58 56 55 54 54 54 54 54 54
61 61 60 60 60 59 59 58 58 58 59 58 59 59 58 59 60 61 60 60 60 60 58 57 57 56 56 55 55 55 54 54 53 53 53 53 52 52 51 51 50 50 49 49 49 50 51 51 51 52 53 54 53 53 55 56 55 54 54 54 54 53 53
62 61 61 59 60 59 59 58 58 58 58 58 58 58 58 59 59 59 60 59 58 58 57 57 57 56 56 55 55 54 54 53 54 53 52 51 51 51 51 51 51 51 50 50 50 51 50 50 50 50 51 52 54 55 56 54 55 54 53 53 53 53 53
62 62 61 60 60 59 59 58 58 57 57 58 57 57 57 58 59 58 58 58 57 58 57 57 56 56 55 55 54 53 53 52 52 52 51 51 51 50 50 51 51 50 50 51 51 51 51 51 50 48 51 52 50 52 54 52 50 53 53 53 53 54 53
62 62 61 61 60 59 59 59 58 58 58 58 57 57 57 58 58 58 58 57 58 57 57 56 56 56 55 54 53 53 52 52 52 51 51 51 50 50 51 50 50 50 50 51 51 51 50 50 49 47 48 51 52 51 52 51 51 49 51 53 54 54 53
62 62 61 61 60 59 59 59 58 58 58 57 57 57 58 58 57 58 58 57 57 56 56 56 55 55 55 54 54 53 53 52 52 52 51 50 50 49 49 50 50 50 50 51 51 50 51 50 49 48 48 46 48 49 47 49 49 49 48 52 54 53 52
62 61 61 60 60 60 59 59 58 57 57 57 57 57 58 58 57 57 57 56 56 56 55 55 54 54 54 53 52 52 52 53 51 51 50 50 49 49 49 49 50 49 50 51 51 51 51 51 50 49 48 46 44 43 45 44 46 46 50 48 51 53 51
61 61 60 59 59 59 59 59 58 57 57 58 57 57 57 57 56 56 56 55 55 55 55 54 54 53 53 53 52 52 51 52 52 50 50 50 49 49 49 49 49 49 50 51 51 51 51 51 51 50 49 46 45 42 41 42 43 43 48 48 45 50 52
62 61 60 59 59 59 58 58 58 58 58 58 58 58 56 56 57 57 55 55 55 54 54 54 54 53 53 52 51 51 51 51 51 51 51 50 49 50 49 49 49 49 50 50 50 50 50 50 50 49 49 48 47 44 42 41 42 45 45 48 48 47 50
61 60 60 60 59 59 58 58 58 57 57 57 57 56 55 55 55 55 55 54 54 54 54 53 53 53 52 52 52 51 51 51 50 49 50 50 50 50 49 48 49 49 49 49 50 50 50 50 49 50 49 49 48 46 44 43 41 46 47 45 47 50 48
60 60 60 59 59 59 59 58 57 57 56 57 56 56 55 55 55 54 54 54 54 53 53 53 53 52 51 51 50 50 50 50 49 49 48 49 49 49 49 48 48 48 49 49 49 49 49 50 50 49 49 49 48 47 46 44 42 43 48 46 47 48 49
59 60 60 60 59 58 58 58 58 58 57 56 56 55 55 54 55 55 55 55 54 53 53 52 52 52 51 50 50 50 49 50 49 49 49 48 49 49 49 48 48 48 49 48 48 49 49 49 50 49 49 49 48 48 46 45 43 44 47 49 48 47 49
59 59 59 59 59 59 59 58 58 58 56 55 56 55 54 54 54 55 55 54 54 53 53 52 52 52 51 50 50 50 49 49 48 48 48 48 48 48 48 48 48 48 48 48 48 48 48 49 49 49 48 48 47 47 47 45 44 43 43 47 47 49 48
59 59 59 59 59 59 58 57 58 57 56 55 55 55 54 54 54 55 54 54 54 53 53 52 52 51 51 50 49 48 48 48 48 48 47 47 47 48 48 47 47 48 49 48 48 48 48 48 48 48 47 48 47 47 47 46 45 43 43 44 46 46 46
58 59 59 59 58 57 57 57 58 57 55 55 54 53 53 53 54 54 54 53 53 53 52 52 51 51 50 50 49 48 48 48 47 47 47 47 47 47 47 47 46 47 48 48 47 48 48 48 48 48 47 48 47 47 47 47 46 44 44 43 45 46 46
58 59 58 58 57 57 56 56 57 56 55 53 53 53 53 53 53 54 53 53 53 52 52 52 51 50 50 49 49 48 47 47 47 47 47 48 49 47 47 46 46 46 47 48 47 47 47 47 47 48 47 48 48 47 47 47 46 46 45 43 44 47 47
59 58 57 56 56 56 56 56 55 55 54 52 52 52 52 52 53 53 53 53 53 52 52 51 51 50 49 49 48 48 48 47 47 47 46 46 46 47 47 47 46 46 46 47 46 47 47 47 47 47 47 47 47 47 46 46 47 46 46 45 44 44 46
58 57 56 55 55 55 55 55 55 54 53 53 52 51 51 51 52 52 52 52 52 51 51 50 50 49 49 48 48 47 46 46 46 46 46 46 46 46 47 48 48 47 47 47 47 47 47 47 47 47 47 47 47 47 46 46 46 46 45 45 45 45 45
57 56 55 55 54 53 53 53 53 52 52 51 51 51 50 50 50 51 51 51 51 51 50 49 49 48 48 48 47 46 46 46 46 46 46 46 46 47 47 48 49 50 49 48 48 47 48 48 48 47 47 48 47 46 46 46 46 46 45 45 44 44 45
56 55 54 53 52 52 51 51 51 51 51 51 50 50 50 50 50 49 49 50 50 50 49 49 48 48 47 47 47 46 46 46 46 46 45 46 45 46 47 49 51 52 53 52 50 50 50 49 48 48 47 47 47 46 46 45 45 46 45 44 44 45 45
56 55 54 53 51 51 50 50 50 50 49 49 49 49 49 50 50 49 49 48 49 48 48 48 50 48 48 48 46 46 45 45 46 46 46 46 46 46 46 46 51 53 53 51 49 46 45 46 48 48 47 46 46 46 45 45 45 45 45 43 42 43 43
55 54 53 52 51 50 50 49 49 48 48 48 48 49 49 48 48 49 49 48 47 47 47 49 45 43 44 45 46 46 45 44 45 45 45 46 46 46 46 46 46 51 49 49 49 44 44 43 43 43 44 45 46 46 45 45 44 44 45 43 43 42 42
55 54 53 52 51 50 49 49 48 48 48 47 47 48 47 47 47 47 47 47 46 46 46 46 42 43 43 43 46 46 45 45 44 44 44 44 45 45 45 45 45 46 49 49 48 48 47 44 43 44 43 43 42 41 42 44 45 44 44 43 42 41 42
54 53 53 52 51 50 49 48 47 47 47 47 47 46 46 46 46 46 46 46 45 45 45 43 42 42 42 42 42 45 44 44 44 43 43 43 43 44 46 46 46 45 47 51 49 47 49 49 46 45 45 45 46 44 40 40 42 45 45 43 43 41 40
54 53 53 52 51 50 49 48 47 47 47 47 46 45 45 45 45 45 45 45 44 43 43 43 41 42 42 41 41 43 43 43 43 43 43 43 43 43 44 46 46 46 45 46 46 46 47 47 47 47 47 46 46 46 44 42 41 42 44 44 43 42 42
54 53 52 52 51 50 49 48 48 47 47 46 45 45 44 44 44 44 44 43 43 42 43 42 41 41 41 41 41 42 43 43 43 42 42 42 42 42 43 43 44 44 44 45 47 46 47 47 47 46 46 46 45 45 45 45 45 46 46 45 44 44 44
54 53 52 51 51 50 49 48 47 47 46 44 44 44 43 44 43 43 43 43 43 41 42 40 41 41 41 41 42 44 43 43 43 43 43 43 43 42 42 43 43 43 44 45 45 44 45 48 47 46 45 45 45 45 46 45 42 43 45 45 45 45 45
53 52 51 50 50 49 48 47 46 47 44 43 43 43 43 43 43 43 43 43 42 41 41 41 40 41 41 41 42 43 43 43 43 42 42 42 43 44 44 43 42 43 43 45 44 42 42 46 46 45 45 44 44 45 46 46 44 41 40 41 40 40 39
52 51 50 49 48 47 47 47 47 47 45 44 43 43 43 42 42 43 43 41 42 41 41 42 41 41 41 41 44 44 44 43 42 42 41 41 42 44 47 48 45 42 43 44 41 41 42 46 46 45 45 45 45 45 46 45 45 45 42 41 41 40 39
52 51 49 48 48 46 47 47 47 46 45 45 43 43 43 42 41 41 42 42 46 43 41 43 41 41 41 41 43 43 44 44 43 42 42 42 41 42 43 45 45 44 44 42 39 41 42 46 46 45 45 45 45 45 45 43 44 45 46 46 45 45 44
52 51 50 48 47 46 47 47 46 45 44 44 43 42 43 42 42 41 42 43 44 42 42 42 43 40 41 41 42 44 44 45 43 41 42 45 44 42 42 42 44 39 38 38 38 38 40 41 45 44 45 46 45 47 46 44 46 44 44 44 43 43 43
51 50 49 48 47 46 46 46 45 45 44 43 42 41 41 41 41 41 41 41 42 41 43 42 42 40 41 41 41 43 44 44 43 43 42 42 42 42 43 42 43 41 38 39 39 39 39 40 41 44 43 45 44 45 43 45 45 44 44 44 44 44 44
50 49 49 48 46 45 46 47 46 45 44 43 42 41 40 41 40 40 40 40 41 41 44 45 43 41 40 41 41 42 44 43 43 43 42 41 41 41 41 41 42 41 39 38 38 39 39 39 40 45 42 39 39 40 45 44 44 44 44 44 45 45 44
49 49 48 48 46 44 44 45 45 45 44 43 42 41 40 40 40 39 39 40 40 41 42 45 43 43 40 40 40 41 41 41 40 45 44 44 43 42 41 40 43 42 39 38 38 38 39 39 41 41 37 38 39 39 42 43 43 44 43 43 43 43 43
49 48 47 46 45 44 43 44 44 45 45 44 42 41 39 39 40 40 40 40 40 40 41 43 42 42 42 39 40 40 39 39 40 42 44 43 41 40 40 40 42 39 39 38 38 38 38 39 40 38 38 38 38 40 43 44 43 42 42 43 43 43 43

ECMWFFLT1_sfc_temp_141.txt.gz
Temp
70 68 68 68 70 71 69 68 70 70 71 72 71 70 70 71 71 70 70 70 69 69 70 69 67 68 68 67 66 66 67 66 65 65 63 64 64 63 65 65 65 64 64 63 62 60 60 58 62 67 67 65 65 64 63 62 61 61 60 60 61 61 62
69 67 67 70 69 69 68 69 70 70 70 70 69 68 69 71 71 70 70 69 69 69 69 68 67 67 66 65 65 65 65 64 64 64 64 63 63 62 64 63 65 65 64 63 62 63 60 58 60 60 60 64 66 64 63 62 62 61 60 60 61 61 62
64 65 67 67 68 68 67 69 69 70 69 67 66 68 69 71 70 70 69 68 68 68 68 67 66 65 65 64 64 64 64 63 64 63 62 62 63 62 62 63 63 63 63 63 62 61 61 60 56 59 60 59 59 62 62 61 61 61 61 60 60 60 60
64 65 65 65 65 65 68 69 69 69 68 65 66 67 69 70 70 70 69 68 68 67 67 66 66 65 64 64 64 63 63 62 63 62 61 61 62 61 61 62 61 61 60 59 58 59 58 57 57 59 61 62 61 59 60 61 61 61 61 60 59 59 59
66 67 65 64 65 65 67 68 68 68 66 65 67 68 69 70 69 68 67 67 67 66 66 66 65 65 65 64 64 63 62 62 62 62 62 60 61 61 60 61 61 61 61 61 61 61 59 58 58 59 60 61 63 63 63 61 62 61 60 60 60 59 59
66 67 67 64 64 66 67 67 67 67 67 67 68 68 67 68 68 67 67 66 66 65 65 65 64 64 64 64 63 62 61 61 61 61 60 59 59 60 60 60 61 61 60 61 61 61 61 61 60 58 61 62 59 60 61 60 59 62 62 60 60 59 59
66 66 65 64 66 67 67 67 67 68 68 68 68 67 68 68 67 67 66 65 66 65 65 64 64 64 63 63 62 61 61 61 61 60 59 59 59 59 61 60 60 60 60 61 61 61 59 59 58 57 58 61 60 60 61 61 61 58 60 61 61 59 59
66 65 64 66 66 67 67 67 68 69 69 68 68 68 68 66 66 66 66 65 65 64 64 63 63 63 63 63 62 61 61 61 60 60 59 58 58 58 58 59 59 60 60 61 60 60 60 59 58 57 57 57 58 59 58 60 59 57 56 60 62 59 58
66 66 65 66 67 67 67 68 67 68 68 68 68 68 66 67 66 65 65 64 64 64 64 63 63 63 62 62 61 61 60 61 59 59 59 59 58 58 58 59 60 59 60 60 60 60 60 59 59 58 58 57 57 56 57 56 56 56 59 55 60 59 57
66 64 63 65 66 67 67 67 67 67 67 67 67 66 66 66 66 65 64 64 63 63 63 63 63 62 62 62 61 60 59 60 60 59 59 59 59 59 59 59 59 59 59 59 60 60 59 59 59 59 58 56 56 56 55 54 51 52 56 55 53 58 59
66 65 65 65 66 66 66 66 66 66 67 67 66 65 66 65 65 65 64 63 63 63 62 63 63 62 62 61 60 60 60 60 59 59 59 59 59 60 59 59 59 59 59 59 59 59 59 59 59 59 58 58 58 56 55 54 52 53 54 56 56 55 57
65 66 66 66 66 66 66 66 67 67 66 66 66 65 65 65 65 64 64 63 63 62 62 62 62 62 62 60 60 60 60 60 60 58 59 59 59 60 59 58 59 58 59 58 59 59 59 59 59 60 59 58 57 56 55 57 53 54 55 53 56 58 56
65 65 66 66 66 66 66 67 67 66 66 66 66 66 66 65 65 64 64 63 62 63 62 62 62 62 61 60 60 60 60 60 59 58 58 59 59 59 59 58 58 58 59 60 59 59 59 59 59 59 59 58 57 57 57 57 54 52 56 55 56 57 57
65 66 66 67 67 66 66 66 66 66 66 65 66 66 66 66 66 64 64 64 63 62 62 61 62 61 61 60 60 60 60 60 59 59 59 58 60 59 59 59 59 59 60 59 59 59 59 59 59 59 59 59 57 57 56 56 55 55 56 58 57 57 57
66 66 66 66 65 65 65 65 64 64 64 65 67 66 66 65 65 65 65 64 64 63 63 62 62 62 61 59 59 59 59 60 59 59 59 59 59 59 59 59 59 59 59 59 58 58 59 58 58 58 57 57 57 56 56 56 55 54 53 56 56 59 58
66 66 66 66 64 64 64 64 65 63 64 65 66 67 65 65 65 65 64 64 64 63 63 62 62 61 60 60 60 59 60 60 59 59 58 59 59 60 59 59 59 59 59 58 58 58 58 58 58 57 56 57 55 55 56 56 55 54 54 54 56 56 56
66 66 65 64 64 64 64 64 64 64 64 65 65 65 66 66 65 65 64 64 63 63 62 61 61 62 61 61 60 60 60 60 60 60 59 60 60 60 59 58 58 59 59 58 58 58 59 58 58 58 57 57 56 55 56 56 56 55 55 54 55 56 56
65 65 64 64 64 64 63 63 63 64 63 63 64 64 65 66 65 65 63 64 63 63 62 62 61 61 60 61 60 60 60 60 60 60 59 59 59 60 59 59 59 60 60 58 58 58 58 57 58 58 57 58 57 57 57 57 57 57 55 53 54 56 57
64 64 64 64 64 63 63 62 62 62 63 63 63 64 64 64 64 65 65 64 64 63 63 62 62 62 61 61 60 60 60 60 60 60 60 60 60 60 59 60 60 60 60 58 57 58 58 57 57 57 56 57 58 57 56 56 57 56 56 55 55 55 56
65 64 64 64 63 63 63 62 62 61 62 62 63 63 64 64 64 65 65 64 63 63 62 62 61 61 61 61 61 60 59 59 59 59 60 60 60 60 61 60 60 60 59 59 58 58 58 57 57 56 57 56 57 57 56 56 57 56 55 55 56 56 56
64 63 63 63 62 61 61 61 61 61 61 62 63 64 64 64 64 65 64 64 63 63 62 61 61 61 61 61 60 60 60 59 59 59 59 60 60 61 61 61 61 61 60 60 60 59 59 57 57 56 57 57 57 56 56 56 56 56 56 55 54 55 55
63 62 61 60 59 59 59 59 60 60 60 61 62 64 64 64 63 63 63 62 62 61 61 60 60 60 60 60 61 60 60 60 60 59 59 59 59 60 61 61 61 61 59 55 52 53 53 54 58 56 56 57 56 56 56 56 56 56 56 55 54 55 54
60 60 60 59 59 59 59 59 59 59 60 61 62 63 63 63 63 62 61 61 61 59 59 60 55 51 54 60 60 60 59 60 60 60 59 59 58 59 60 61 59 54 53 51 49 46 45 46 49 54 56 56 56 56 55 55 55 56 55 53 53 53 52
59 59 59 58 58 59 60 60 60 60 59 60 60 61 62 62 62 62 61 60 59 59 58 58 46 44 45 49 58 59 59 59 59 60 60 59 59 58 59 60 59 55 54 52 51 44 44 44 44 43 43 44 47 53 55 54 54 55 54 53 53 53 52
59 58 58 57 58 60 60 61 60 60 59 58 59 60 60 61 61 60 60 61 59 58 58 48 42 43 43 45 51 59 59 59 58 59 60 60 60 59 58 59 59 59 59 59 58 55 49 44 43 43 42 43 42 41 42 50 54 54 53 53 52 51 52
59 57 58 58 58 59 60 60 59 58 58 58 59 59 60 59 59 59 59 59 59 58 58 44 42 42 42 43 45 54 60 59 59 59 59 60 60 59 59 58 58 58 58 54 58 59 58 54 46 44 45 45 44 43 40 40 42 51 56 54 53 51 51
57 57 58 57 57 58 58 58 58 58 57 58 58 58 58 57 58 58 59 59 58 58 56 44 42 42 42 41 43 50 60 58 58 58 59 59 59 59 59 59 58 57 58 58 60 59 59 58 57 57 57 57 55 50 44 42 43 42 49 54 54 52 52
56 56 56 56 56 56 56 55 56 56 57 57 57 57 57 57 57 57 58 58 57 56 54 41 41 41 41 41 42 49 58 57 57 57 57 57 57 58 58 59 60 59 58 58 59 58 59 59 58 57 57 56 57 57 56 56 56 56 56 55 55 54 54
55 55 55 56 55 54 53 54 54 54 55 56 57 57 57 57 56 56 56 56 56 55 51 40 40 40 41 41 43 57 57 57 57 57 57 57 57 57 57 58 59 59 59 58 51 44 51 60 59 58 56 57 57 57 56 51 45 45 51 54 56 55 54
54 54 55 55 55 54 54 55 54 54 54 54 54 54 55 55 57 56 55 56 56 54 52 43 40 40 41 41 48 58 57 58 58 57 56 56 57 56 56 57 59 59 58 59 47 41 43 48 60 58 57 56 56 57 57 55 44 40 39 39 38 39 38
54 54 55 56 56 55 55 55 54 55 54 53 54 55 55 55 56 56 55 55 56 54 53 45 39 40 41 42 50 57 58 58 57 57 56 56 58 58 55 48 53 59 58 57 41 41 41 49 59 58 58 57 56 56 56 56 56 52 40 40 40 40 40
57 56 55 54 54 54 53 52 54 55 54 54 53 54 55 55 54 54 55 55 51 54 53 47 40 40 41 42 51 58 59 59 57 56 57 56 56 58 56 52 46 51 57 50 38 41 40 49 60 59 58 57 56 55 56 57 56 57 57 57 57 55 53
56 54 53 52 53 53 52 50 50 50 51 52 51 52 53 54 53 52 52 53 52 54 53 51 46 40 41 42 46 59 59 58 56 55 57 57 57 57 57 56 49 38 39 39 40 40 41 42 57 59 59 58 56 54 57 57 56 57 57 57 56 56 55
55 53 53 53 53 50 49 48 46 46 46 49 49 50 51 52 52 51 52 53 53 53 54 52 48 40 41 42 42 49 59 59 58 58 58 58 58 58 58 59 58 41 38 39 39 38 40 40 45 58 58 59 57 54 53 58 53 48 57 57 57 57 58
52 52 53 53 50 49 48 48 47 46 46 46 48 48 49 50 51 50 51 51 52 52 52 49 51 41 41 41 41 43 57 58 59 59 57 58 58 58 58 58 58 45 37 38 38 39 38 40 39 58 54 42 37 40 55 57 58 59 59 59 59 58 58
50 50 50 52 50 48 49 49 48 47 47 47 47 47 47 49 49 49 50 51 52 52 52 51 45 47 40 40 40 41 45 51 44 58 58 57 57 58 58 57 53 40 38 38 38 38 39 38 45 51 37 38 39 38 47 58 58 58 58 58 57 56 56
51 50 50 51 50 49 48 48 48 48 46 44 43 43 45 47 49 49 49 50 51 52 53 54 46 44 45 39 40 40 41 42 43 57 59 58 59 58 57 57 52 38 38 38 38 38 39 43 49 37 38 37 39 42 57 58 57 57 57 56 56 56 56

ECMWFFLT1_sfc_temp_144.txt.gz
Temp
73 73 76 76 77 76 75 75 76 77 78 78 77 78 78 78 77 77 77 76 76 77 77 75 74 75 75 74 73 73 73 73 72 72 71 72 70 69 71 70 70 70 69 68 68 65 66 65 68 73 72 70 70 68 67 67 67 66 66 66 66 67 68
74 75 75 76 75 76 73 75 76 76 75 76 77 77 78 77 77 76 76 76 76 76 77 75 74 73 72 71 71 71 71 71 71 71 71 70 70 69 71 70 70 70 70 69 68 68 65 64 66 66 66 70 70 68 67 67 67 67 67 66 66 67 67
72 73 75 73 73 74 73 73 74 74 74 74 75 76 76 77 76 76 75 74 74 75 74 73 72 72 71 71 70 70 70 70 71 70 69 70 71 70 70 70 69 69 69 68 67 67 67 65 63 65 66 64 65 66 67 66 67 68 67 66 66 66 66
71 73 72 71 72 72 72 72 72 74 75 74 74 74 74 75 75 75 74 74 74 74 74 73 72 72 71 70 70 70 69 69 70 69 69 69 70 69 69 69 68 67 66 65 65 67 65 64 65 66 67 68 67 65 65 67 67 68 68 67 65 65 65
71 72 72 71 72 72 72 72 73 74 73 73 73 73 73 74 73 72 73 74 75 73 72 73 72 72 72 71 71 70 69 69 69 69 69 68 68 68 67 68 68 68 67 66 67 67 66 66 65 66 67 69 69 70 69 68 68 67 67 66 66 65 65
71 73 73 72 73 72 73 72 72 73 73 72 72 72 72 72 72 72 73 74 73 72 72 72 71 71 71 71 70 69 69 68 68 68 67 66 66 67 67 68 68 68 67 68 67 67 67 68 67 66 68 68 65 66 68 67 67 70 69 67 67 66 65
72 73 73 73 72 73 74 72 72 73 73 73 72 72 72 73 73 73 73 74 72 72 71 71 70 70 70 71 69 68 68 68 68 67 66 66 66 66 68 67 67 67 67 67 67 67 66 66 65 64 65 67 67 68 68 70 69 65 67 69 69 67 66
69 68 70 73 73 73 74 73 73 74 74 74 73 72 73 72 72 72 73 72 71 70 70 70 70 70 70 70 69 68 68 68 67 67 66 65 65 65 65 66 66 67 67 68 68 67 67 66 65 64 64 64 66 66 66 67 67 65 63 69 70 68 65
70 68 70 72 73 74 74 73 73 74 75 75 73 72 72 72 71 71 72 71 71 70 70 70 70 70 69 69 69 68 67 68 66 66 66 65 64 64 65 66 66 66 67 67 68 67 67 67 67 66 66 65 64 64 65 63 64 64 66 63 68 67 65
70 71 71 71 72 73 73 73 74 75 74 73 72 72 70 71 72 73 72 70 70 70 70 70 70 69 69 69 68 67 67 67 67 66 66 65 65 66 65 65 66 66 66 66 67 67 66 67 67 67 67 64 64 65 63 61 59 60 64 63 62 66 66
71 72 72 72 72 72 72 74 75 74 73 72 72 71 71 71 71 72 71 70 70 69 69 70 70 69 69 68 68 67 67 67 66 66 66 66 65 66 65 66 66 66 66 66 65 65 66 66 67 67 67 67 65 64 64 62 58 61 61 64 64 63 65
71 71 72 72 72 72 73 74 75 75 73 73 72 71 71 72 72 71 70 70 69 69 69 69 69 69 69 67 67 67 67 67 66 65 65 65 66 66 65 64 66 65 66 65 66 66 66 66 67 68 67 67 65 64 64 64 60 60 63 61 63 65 63
72 72 72 72 72 73 74 75 75 73 72 73 72 72 73 73 72 70 71 70 69 69 69 69 69 68 68 68 67 67 67 67 66 65 65 66 66 65 65 64 65 65 66 67 66 66 66 66 66 67 67 67 65 64 66 64 61 59 63 62 63 65 64
72 72 72 72 73 73 75 75 75 74 74 72 72 72 73 73 72 71 71 71 71 69 69 68 68 68 68 67 67 67 67 67 66 65 65 64 66 65 66 65 65 65 66 65 66 66 66 66 66 66 66 67 65 64 64 63 62 61 63 65 65 64 65
72 72 71 71 71 74 74 74 74 75 72 73 73 73 75 73 72 72 72 72 71 70 69 69 69 69 68 66 66 66 66 66 66 65 65 64 65 65 65 65 65 65 66 65 65 65 65 65 65 65 65 65 64 63 63 64 63 61 59 63 64 66 65
72 71 70 71 72 74 73 74 75 75 74 73 73 74 73 72 72 72 72 71 71 71 70 69 68 68 67 67 66 66 66 66 65 64 64 65 65 65 64 64 64 65 65 64 64 64 65 64 65 64 63 64 63 63 63 63 63 61 60 60 63 64 64
71 71 71 71 72 73 72 72 73 74 74 74 73 73 73 73 72 72 71 71 71 70 69 68 68 68 68 68 67 67 67 66 66 66 65 66 66 65 65 64 64 64 64 64 64 64 65 65 64 64 64 64 63 62 63 64 63 63 62 61 61 63 64
70 71 70 71 71 72 72 73 74 74 73 73 73 73 73 73 72 71 70 71 70 70 69 69 68 68 67 68 68 67 67 67 66 66 65 65 64 65 65 64 65 65 65 63 63 64 64 62 64 64 64 65 64 64 64 64 64 64 62 61 62 64 64
70 71 70 70 71 72 72 72 72 72 72 72 73 73 72 72 71 72 72 72 71 71 70 69 69 69 68 68 67 67 66 66 66 66 66 66 66 66 65 65 65 65 65 63 62 62 63 62 63 63 62 63 65 64 63 63 64 63 63 62 62 62 63
71 71 71 71 71 72 71 71 72 71 72 71 71 72 72 72 72 72 72 71 71 70 70 69 69 68 68 68 67 67 66 65 65 65 66 66 66 66 66 65 65 64 64 64 63 62 62 62 62 62 62 62 64 63 63 63 64 63 62 62 63 63 63
70 69 70 72 72 72 71 71 71 71 71 70 70 72 72 72 72 73 72 72 71 70 69 69 69 69 69 68 67 66 66 65 65 65 65 66 66 66 66 65 65 65 65 64 64 63 63 62 63 62 62 63 63 63 63 63 64 64 63 62 62 62 62
70 70 71 72 72 71 70 70 69 69 69 70 70 72 74 73 72 72 72 70 70 69 68 67 68 68 68 68 67 66 66 66 65 65 65 65 65 66 66 65 65 64 60 55 50 52 52 54 62 62 62 63 62 62 62 64 63 64 63 62 61 62 61
71 70 71 71 71 69 68 67 67 68 68 69 70 72 74 73 72 71 71 70 69 67 67 68 63 56 59 67 67 67 66 66 66 65 64 64 65 65 65 64 62 55 53 52 50 47 46 46 48 55 58 60 60 62 61 61 62 63 62 60 60 60 58
70 70 71 70 69 67 67 66 66 67 66 67 67 70 72 72 72 71 70 69 68 67 67 66 49 49 50 54 65 66 65 65 66 65 65 64 64 64 64 64 62 57 56 53 52 43 44 44 44 44 44 45 48 55 59 60 60 61 61 59 59 59 58
70 70 69 69 68 67 65 66 66 66 65 65 66 68 70 71 71 71 70 70 67 67 67 52 45 46 47 49 55 66 66 66 65 65 65 65 65 65 64 63 63 62 63 62 60 57 50 44 43 42 42 44 43 43 43 52 57 60 59 59 58 57 58
71 71 69 68 67 65 65 65 65 65 64 64 65 66 69 70 70 70 69 69 67 67 65 45 44 44 46 47 49 58 68 66 65 66 66 66 66 65 64 64 63 63 64 58 60 61 60 55 46 44 45 44 45 45 44 42 43 55 62 59 58 56 56
68 68 67 66 64 64 64 65 65 65 65 64 64 65 68 68 69 69 68 69 67 67 64 46 43 43 45 44 46 51 69 66 66 66 66 66 65 65 64 64 63 63 63 62 64 62 62 60 58 58 59 61 60 53 43 43 43 43 54 60 59 57 57
67 65 64 64 64 65 65 65 65 65 64 63 63 65 68 68 68 68 68 69 69 66 61 42 42 42 43 43 44 47 68 65 66 66 66 66 65 65 65 65 64 64 63 63 64 62 63 62 62 62 61 61 62 62 62 61 61 61 61 61 61 60 59
66 64 61 61 62 64 65 65 65 65 64 64 64 66 67 68 67 67 68 69 67 65 57 41 42 42 41 43 42 62 66 64 65 65 65 65 66 66 66 65 65 64 64 64 56 48 52 61 63 62 61 61 61 62 60 55 44 45 53 58 60 60 60
64 63 62 60 61 64 64 64 64 65 64 63 63 63 65 66 67 68 67 67 66 63 57 44 41 41 42 41 48 64 65 65 65 64 64 65 65 65 65 66 66 65 64 65 51 45 45 46 64 62 61 61 61 62 61 59 43 39 39 40 37 36 35
61 61 61 61 63 64 65 65 65 65 64 63 63 64 65 66 67 67 66 65 66 63 60 48 40 41 41 41 51 64 65 65 64 64 64 64 65 65 63 52 57 66 64 64 44 43 44 51 62 63 61 61 60 60 60 61 60 56 41 40 40 40 40
62 61 61 62 63 63 63 62 63 64 65 64 63 64 64 65 66 65 65 66 58 62 60 49 40 41 41 42 52 64 65 66 63 63 64 63 65 65 63 59 50 50 59 55 39 43 41 50 63 63 62 61 60 60 60 61 61 61 60 59 57 55 52
62 62 62 61 63 62 62 61 61 62 62 63 63 63 63 64 63 64 64 64 62 63 60 55 48 39 42 42 44 61 67 65 63 62 64 64 63 64 64 63 54 40 39 40 41 41 42 41 57 63 63 63 61 59 62 61 61 61 62 61 62 61 61
60 60 61 60 59 60 62 61 60 60 60 61 60 61 61 61 61 61 62 61 62 62 60 58 50 39 41 42 43 46 66 65 65 64 64 64 64 64 63 64 65 43 39 40 40 39 42 40 42 58 62 63 61 57 56 63 59 53 61 61 62 62 64
59 59 59 57 57 58 60 61 60 60 61 59 58 58 58 59 59 59 59 60 60 60 58 53 55 41 41 41 43 42 58 65 64 65 63 65 65 65 64 65 65 46 38 39 40 39 39 41 39 56 57 43 39 44 59 62 63 63 64 64 65 64 64
56 57 56 55 55 54 57 58 57 58 57 57 55 53 53 54 55 55 56 57 58 58 56 54 47 48 41 41 41 43 40 51 50 62 65 64 64 65 66 64 56 40 39 38 39 39 40 39 41 55 36 39 44 39 46 62 64 63 64 64 63 62 62
55 55 54 53 52 52 54 55 55 55 56 56 54 51 51 52 52 51 52 54 55 54 53 53 46 45 46 39 42 40 43 43 50 62 65 66 65 65 64 63 54 38 39 38 38 39 39 40 53 37 39 39 37 41 59 61 61 63 60 61 61 62 63